{"data":{"norad_id":56513,"epoch":"2026-05-24T10:11:54.161088Z","epoch_age_seconds":131400,"freshness":"FRESH","line1":"1 56513U 23065L   26144.42493242  .00000071  00000+0  12103-4 0  9991","line2":"2 56513  43.0011 144.6660 0001147 270.1493  89.9228 15.27577235168183","mean_motion":15.27577235,"eccentricity":0.0001147,"inclination_deg":43.0011,"raan_deg":144.666,"arg_perigee_deg":270.1493,"mean_anomaly_deg":89.9228,"bstar":1.2103e-5,"rev_number":16818,"period_min":94.266919341725,"perigee_km":482.27039646198,"apogee_km":483.84435445171,"semimajor_km":6861.1943754568,"source":"CELESTRAK","updated_at":"2026-05-25T13:38:18.106249Z"}}